Tracking 21076 objects as of 7-Aug-2020
HD Live streaming from Space Station
objects crossing your sky now

ARIANE 1 DEB


ARIANE 1 DEB is no longer on orbit


NORAD ID: 35409
Int'l Code: 1986-019VP
Perigee: N/A
Apogee: N/A
Inclination: N/A
Period: N/A
Semi major axis: N/A
RCS: N/A
Launch date: February 22, 1986
Source: France (FR)
Launch site: FRENCH GUIANA (FRGUI)
Decay date: 2012-12-24

Note: This is SATELLITE DEBRIS
aabbcc
Your satellite tracking list
Your tracking list is empty




NASA's NSSDC Master Catalog

Two Line Element Set (TLE):
1 35409U 86019VP  12358.71710703  .07827222  00000-0  28698-1 0  9994
2 35409 098.2222 343.6346 0023467 101.3865 259.1010 15.83108021457938
Source of the keplerian elements: AFSPC